Zurück zum Katalog

IRIDIUM 33 DEB

AktivPO
NORAD 34696·DEBRIS·🇺🇸 United States

Gestartet Sep 14, 1997 von Baikonur Cosmodrome

Loading…

Nächste Überflüge (nächste 24 Stunden)

TLE

AktuellSource: Space-Track

Epoche: Sep 14, 2026, 11:46 UTC

1 34696U 97051KT  26257.49074866  .00018642  00000-0  23070-2 0  9991
2 34696  86.1769 257.1894 0045568 292.9708 222.3834 14.81905759907366

Verfolge IRIDIUM 33 DEB in Echtzeit mit AllMySat

Download on the App Store